Вернуться в каталог

ONEWEB-0339

АктивенСвязьPO
NORAD 49205·PAYLOAD·🇬🇧 United Kingdom

Запущен Sep 14, 2021 с Baikonur Cosmodrome

Loading…

Ближайшие Пролёты (ближайшие 24 часа)

TLE

СвежийSource: CelesTrak SupGP

Эпоха: Sep 14, 2026, 17:33 UTC

1 49205C 21083V   26257.73143935 -.00002532  00000+0 -69403-2 0  2575
2 49205  87.8924 302.4101 0001982  91.8876  10.6126 13.13475589    13

Отслеживайте ONEWEB-0339 в реальном времени с AllMySat

Download on the App Store